EXS27KG LGMT-EGCC

Flight info

Callsign EXS27KG
Flight time 3h 46m
Altitude 38000
Route ERESO UN128 FSK UL608 DISOR DCT LONTA UL608 DOLEV DCT PODOB DCT TIVNU DCT PODET DCT SIMBA DCT MAMOR DCT INBED DCT BOMBI DCT ADKUV DCT DENUT L610 LAM UN57 WELIN T420 ELVOS
Aircraft A321/M-SDE3FGHIRWY/LB1

Departure

Time 2026-05-05 14:16
Airport Mytilene International Airport (LGMT)

Arrival

Time 2026-05-05 18:02
Airport Manchester Airport (EGCC)
Time Latitude Longitude Altitude Speed Heading
2026-05-05 14:07 39.06175 26.59847 27 ft 0 kts 57°
2026-05-05 14:09 39.06172 26.59841 23 ft 3 kts 57°
2026-05-05 14:09 39.06162 26.59821 25 ft 3 kts 57°
2026-05-05 14:09 39.06152 26.59801 26 ft 2 kts 56°
2026-05-05 14:09 39.06138 26.59786 27 ft 3 kts 356°
2026-05-05 14:10 39.06120 26.59787 24 ft 3 kts 346°
2026-05-05 14:10 39.06116 26.59789 23 ft 0 kts 347°
2026-05-05 14:13 39.06132 26.59771 23 ft 7 kts 310°
2026-05-05 14:13 39.06174 26.59666 29 ft 19 kts 294°
2026-05-05 14:13 39.06221 26.59535 35 ft 14 kts 300°
2026-05-05 14:13 39.06284 26.59457 37 ft 12 kts 327°
2026-05-05 14:14 39.06379 26.59380 38 ft 18 kts 327°
2026-05-05 14:14 39.06475 26.59303 41 ft 15 kts 328°
2026-05-05 14:14 39.06554 26.59240 43 ft 12 kts 328°
2026-05-05 14:14 39.06616 26.59190 45 ft 9 kts 328°
2026-05-05 14:15 39.06661 26.59171 47 ft 7 kts 355°
2026-05-05 14:15 39.06680 26.59147 47 ft 1 kts 222°
2026-05-05 14:15 39.06664 26.59154 47 ft 5 kts 154°
2026-05-05 14:15 39.06628 26.59181 45 ft 8 kts 149°
2026-05-05 14:16 39.06487 26.59294 42 ft 55 kts 148°
2026-05-05 14:16 39.05958 26.59717 33 ft 121 kts 148°
2026-05-05 14:16 39.05099 26.60413 67 ft 165 kts 147°
2026-05-05 14:16 39.04131 26.61194 748 ft 163 kts 149°
2026-05-05 14:17 39.03151 26.61955 1387 ft 166 kts 149°
2026-05-05 14:17 39.02169 26.62735 1909 ft 168 kts 149°
2026-05-05 14:17 39.01123 26.63566 2064 ft 185 kts 151°
2026-05-05 14:17 38.99849 26.63919 2183 ft 197 kts 196°
2026-05-05 14:18 38.98728 26.62940 2342 ft 203 kts 242°
2026-05-05 14:18 38.98360 26.61158 2494 ft 215 kts 267°
2026-05-05 14:18 38.98027 26.59182 2617 ft 241 kts 246°
2026-05-05 14:18 38.96956 26.57401 2879 ft 262 kts 227°
2026-05-05 14:19 38.95712 26.55649 3465 ft 267 kts 231°
2026-05-05 14:19 38.95104 26.54714 3807 ft 269 kts 232°
2026-05-05 14:19 38.94618 26.53948 4075 ft 271 kts 233°
2026-05-05 14:19 38.93430 26.52046 4738 ft 274 kts 234°
2026-05-05 14:20 38.92231 26.50119 5384 ft 278 kts 233°
2026-05-05 14:20 38.91140 26.48072 5943 ft 280 kts 251°
2026-05-05 14:20 38.90804 26.45666 6586 ft 274 kts 277°
2026-05-05 14:20 38.91296 26.43339 7183 ft 270 kts 300°
2026-05-05 14:21 38.92156 26.41191 7833 ft 271 kts 301°
2026-05-05 14:21 38.93040 26.39011 8495 ft 273 kts 301°
2026-05-05 14:21 38.93921 26.36838 9143 ft 275 kts 301°
2026-05-05 14:21 38.94802 26.34653 9783 ft 277 kts 302°
2026-05-05 14:22 38.95675 26.32479 10350 ft 279 kts 302°
2026-05-05 14:22 38.96566 26.30257 10921 ft 281 kts 303°
2026-05-05 14:22 38.97685 26.28225 11433 ft 280 kts 316°
2026-05-05 14:22 38.99180 26.26499 11557 ft 297 kts 323°
2026-05-05 14:23 39.00824 26.24765 11662 ft 315 kts 323°
2026-05-05 14:23 39.02561 26.22929 11819 ft 331 kts 323°
2026-05-05 14:23 39.04362 26.21021 12241 ft 338 kts 323°
2026-05-05 14:23 39.06191 26.19070 12606 ft 347 kts 323°
2026-05-05 14:24 39.08055 26.17074 13039 ft 352 kts 320°
2026-05-05 14:24 39.09934 26.15057 13744 ft 349 kts 323°
2026-05-05 14:24 39.11798 26.13052 14222 ft 351 kts 322°
2026-05-05 14:24 39.13664 26.11045 14843 ft 349 kts 323°
2026-05-05 14:25 39.15529 26.09041 15428 ft 350 kts 323°
2026-05-05 14:25 39.17405 26.07027 15941 ft 352 kts 323°
2026-05-05 14:25 39.19293 26.05001 16441 ft 354 kts 323°
2026-05-05 14:25 39.21194 26.02964 16939 ft 357 kts 323°
2026-05-05 14:26 39.23108 26.00914 17426 ft 359 kts 322°
2026-05-05 14:26 39.25033 25.98849 17901 ft 361 kts 322°
2026-05-05 14:26 39.26967 25.96772 18363 ft 363 kts 322°
2026-05-05 14:26 39.28913 25.94675 18733 ft 366 kts 322°
2026-05-05 14:27 39.30868 25.92546 19089 ft 369 kts 322°
2026-05-05 14:27 39.32821 25.90380 19453 ft 372 kts 321°
2026-05-05 14:27 39.34783 25.88186 19814 ft 374 kts 321°
2026-05-05 14:27 39.36757 25.85974 20179 ft 377 kts 321°
2026-05-05 14:28 39.38745 25.83744 20524 ft 380 kts 321°
2026-05-05 14:28 39.40744 25.81501 20889 ft 382 kts 321°
2026-05-05 14:28 39.42760 25.79242 21244 ft 385 kts 321°
2026-05-05 14:28 39.44792 25.76970 21581 ft 387 kts 321°
2026-05-05 14:29 39.46839 25.74681 21918 ft 390 kts 321°
2026-05-05 14:29 39.48899 25.72375 22265 ft 393 kts 321°
2026-05-05 14:29 39.50972 25.70055 22613 ft 395 kts 321°
2026-05-05 14:29 39.53058 25.67720 22942 ft 398 kts 321°
2026-05-05 14:30 39.55156 25.65368 23287 ft 400 kts 321°
2026-05-05 14:30 39.57265 25.63002 23597 ft 402 kts 321°
2026-05-05 14:30 39.59383 25.60622 23887 ft 404 kts 321°
2026-05-05 14:30 39.61512 25.58227 24167 ft 406 kts 321°
2026-05-05 14:31 39.63647 25.55821 24471 ft 407 kts 321°
2026-05-05 14:31 39.65787 25.53398 24776 ft 408 kts 321°
2026-05-05 14:31 39.67903 25.51003 25061 ft 410 kts 321°
2026-05-05 14:31 39.70085 25.48538 25356 ft 411 kts 321°
2026-05-05 14:32 39.72215 25.46136 25637 ft 412 kts 321°
2026-05-05 14:32 39.74385 25.43686 25917 ft 414 kts 321°
2026-05-05 14:32 39.76557 25.41230 26199 ft 415 kts 321°
2026-05-05 14:32 39.78738 25.38760 26478 ft 416 kts 321°
2026-05-05 14:33 39.80921 25.36280 26749 ft 417 kts 321°
2026-05-05 14:33 39.83112 25.33789 27032 ft 419 kts 321°
2026-05-05 14:33 39.85308 25.31292 27272 ft 420 kts 321°
2026-05-05 14:33 39.87513 25.28784 27500 ft 422 kts 321°
2026-05-05 14:34 39.89727 25.26264 27758 ft 424 kts 321°
2026-05-05 14:34 39.91871 25.23618 28002 ft 426 kts 314°
2026-05-05 14:34 39.93697 25.20557 28246 ft 430 kts 308°
2026-05-05 14:34 39.95422 25.17363 28489 ft 431 kts 308°
2026-05-05 14:35 39.97151 25.14166 28716 ft 432 kts 308°
2026-05-05 14:35 39.98890 25.10958 28988 ft 433 kts 308°
2026-05-05 14:35 40.00635 25.07744 29233 ft 435 kts 308°
2026-05-05 14:35 40.02378 25.04526 29559 ft 434 kts 308°
2026-05-05 14:36 40.04113 25.01313 29894 ft 432 kts 308°
2026-05-05 14:36 40.05841 24.98105 30176 ft 432 kts 308°
2026-05-05 14:36 40.07570 24.94900 30435 ft 431 kts 308°
2026-05-05 14:36 40.09297 24.91699 30712 ft 430 kts 308°
2026-05-05 14:37 40.11018 24.88508 31005 ft 429 kts 307°
2026-05-05 14:37 40.12706 24.85369 31311 ft 427 kts 307°
2026-05-05 14:37 40.14409 24.82193 31607 ft 426 kts 307°
2026-05-05 14:37 40.16105 24.79027 31912 ft 424 kts 307°
2026-05-05 14:38 40.17797 24.75872 32209 ft 423 kts 307°
2026-05-05 14:38 40.19481 24.72735 32514 ft 421 kts 307°
2026-05-05 14:38 40.21161 24.69601 32809 ft 420 kts 307°
2026-05-05 14:38 40.22834 24.66474 33096 ft 419 kts 307°
2026-05-05 14:39 40.24500 24.63356 33378 ft 417 kts 307°
2026-05-05 14:39 40.26160 24.60249 33676 ft 416 kts 307°
2026-05-05 14:39 40.27815 24.57152 33964 ft 414 kts 307°
2026-05-05 14:39 40.29462 24.54058 34180 ft 413 kts 307°
2026-05-05 14:40 40.31102 24.50971 34397 ft 413 kts 307°
2026-05-05 14:40 40.32737 24.47891 34621 ft 412 kts 307°
2026-05-05 14:40 40.34371 24.44815 34802 ft 411 kts 307°
2026-05-05 14:40 40.36005 24.41738 34983 ft 411 kts 307°
2026-05-05 14:41 40.37638 24.38659 35124 ft 411 kts 307°
2026-05-05 14:41 40.39268 24.35580 35279 ft 411 kts 307°
2026-05-05 14:41 40.40895 24.32501 35459 ft 410 kts 307°
2026-05-05 14:41 40.42520 24.29425 35639 ft 410 kts 307°
2026-05-05 14:42 40.44146 24.26354 35793 ft 409 kts 307°
2026-05-05 14:42 40.45770 24.23282 35960 ft 409 kts 307°
2026-05-05 14:42 40.47386 24.20218 36115 ft 408 kts 307°
2026-05-05 14:42 40.49002 24.17147 36275 ft 408 kts 307°
2026-05-05 14:43 40.50612 24.14081 36420 ft 408 kts 306°
2026-05-05 14:43 40.52220 24.11012 36564 ft 407 kts 306°
2026-05-05 14:43 40.53827 24.07948 36702 ft 407 kts 307°
2026-05-05 14:43 40.55431 24.04893 36821 ft 406 kts 306°
2026-05-05 14:44 40.57013 24.01873 36958 ft 406 kts 306°
2026-05-05 14:44 40.58609 23.98821 37094 ft 405 kts 306°
2026-05-05 14:44 40.60202 23.95771 37230 ft 404 kts 306°
2026-05-05 14:44 40.61794 23.92721 37362 ft 403 kts 306°
2026-05-05 14:45 40.63379 23.89681 37504 ft 402 kts 306°
2026-05-05 14:45 40.64956 23.86651 37623 ft 401 kts 306°
2026-05-05 14:45 40.66529 23.83621 37763 ft 400 kts 306°
2026-05-05 14:45 40.68092 23.80605 37921 ft 397 kts 306°
2026-05-05 14:46 40.71214 23.74597 38005 ft 398 kts 306°
2026-05-05 14:46 40.74346 23.68566 38036 ft 400 kts 306°
2026-05-05 14:47 40.77495 23.62479 38018 ft 403 kts 306°
2026-05-05 14:47 40.80663 23.56342 38025 ft 406 kts 306°
2026-05-05 14:48 40.83843 23.50166 38009 ft 406 kts 306°
2026-05-05 14:48 40.87019 23.43983 38010 ft 406 kts 306°
2026-05-05 14:49 40.90191 23.37801 38010 ft 406 kts 306°
2026-05-05 14:49 40.93362 23.31612 38015 ft 407 kts 306°
2026-05-05 14:50 40.96526 23.25417 38017 ft 406 kts 306°
2026-05-05 14:50 40.99689 23.19217 38018 ft 406 kts 306°
2026-05-05 14:51 41.02840 23.13013 38017 ft 406 kts 306°
2026-05-05 14:51 41.05987 23.06807 38014 ft 405 kts 306°
2026-05-05 14:52 41.09134 23.00606 38012 ft 405 kts 306°
2026-05-05 14:52 41.12657 22.94801 38013 ft 404 kts 311°
2026-05-05 14:53 41.16295 22.89110 38010 ft 404 kts 311°
2026-05-05 14:53 41.19923 22.83412 38012 ft 404 kts 311°
2026-05-05 14:54 41.23546 22.77705 37996 ft 404 kts 311°
2026-05-05 14:54 41.27210 22.72064 38008 ft 403 kts 313°
2026-05-05 14:55 41.30966 22.66622 38023 ft 402 kts 313°
2026-05-05 14:55 41.34756 22.61169 38024 ft 401 kts 313°
2026-05-05 14:56 41.38517 22.55675 38024 ft 401 kts 313°
2026-05-05 14:56 41.42263 22.50162 38025 ft 402 kts 313°
2026-05-05 14:57 41.46014 22.44636 38011 ft 402 kts 312°
2026-05-05 14:57 41.49754 22.39110 38026 ft 401 kts 312°
2026-05-05 14:58 41.53486 22.33587 38026 ft 400 kts 312°
2026-05-05 14:58 41.57211 22.28070 38024 ft 399 kts 312°
2026-05-05 14:59 41.60924 22.22563 38024 ft 399 kts 312°
2026-05-05 14:59 41.64637 22.17046 38029 ft 399 kts 312°
2026-05-05 15:00 41.67725 22.12459 37999 ft 399 kts 312°
2026-05-05 15:00 41.72056 22.06000 38013 ft 399 kts 312°
2026-05-05 15:01 41.75756 22.00470 38016 ft 398 kts 312°
2026-05-05 15:01 41.79447 21.94939 38016 ft 398 kts 312°
2026-05-05 15:02 41.83136 21.89406 38018 ft 398 kts 312°
2026-05-05 15:02 41.86815 21.83876 38017 ft 398 kts 312°
2026-05-05 15:03 41.90499 21.78333 38008 ft 398 kts 311°
2026-05-05 15:03 41.94179 21.72785 38005 ft 398 kts 311°
2026-05-05 15:04 41.97863 21.67218 38004 ft 399 kts 311°
2026-05-05 15:04 42.01548 21.61635 38003 ft 399 kts 311°
2026-05-05 15:05 42.07076 21.53239 38016 ft 400 kts 311°
2026-05-05 15:06 42.09837 21.49026 38013 ft 400 kts 311°
2026-05-05 15:06 42.10005 21.48770 38013 ft 400 kts 311°
2026-05-05 15:06 42.12408 21.45084 37674 ft 399 kts 311°
2026-05-05 15:07 42.14231 21.42305 37777 ft 389 kts 311°
2026-05-05 15:07 42.15990 21.39618 38794 ft 375 kts 313°
2026-05-05 15:07 42.17165 21.37820 38512 ft 384 kts 313°
2026-05-05 15:07 42.18948 21.35057 38109 ft 393 kts 313°
2026-05-05 15:08 42.20727 21.32253 38110 ft 394 kts 312°
2026-05-05 15:08 42.24273 21.26584 38121 ft 397 kts 312°
2026-05-05 15:09 42.27849 21.20868 38110 ft 399 kts 312°
2026-05-05 15:09 42.31454 21.15122 38095 ft 402 kts 312°
2026-05-05 15:10 42.35086 21.09338 38085 ft 405 kts 312°
2026-05-05 15:10 42.38735 21.03495 38091 ft 408 kts 312°
2026-05-05 15:11 42.42411 20.97595 38065 ft 412 kts 312°
2026-05-05 15:11 42.46124 20.91640 38080 ft 416 kts 312°
2026-05-05 15:12 42.49834 20.85673 38064 ft 418 kts 311°
2026-05-05 15:12 42.53573 20.79643 38074 ft 418 kts 311°
2026-05-05 15:13 42.57314 20.73607 38085 ft 418 kts 311°
2026-05-05 15:13 42.61046 20.67566 38098 ft 418 kts 311°
2026-05-05 15:14 42.64777 20.61511 38119 ft 418 kts 311°
2026-05-05 15:14 42.68507 20.55451 38121 ft 418 kts 311°
2026-05-05 15:15 42.72231 20.49384 38117 ft 418 kts 311°
2026-05-05 15:15 42.75957 20.43324 38107 ft 418 kts 311°
2026-05-05 15:16 42.79677 20.37244 38099 ft 417 kts 311°
2026-05-05 15:16 42.83392 20.31146 38106 ft 419 kts 311°
2026-05-05 15:17 42.87114 20.25036 38110 ft 419 kts 311°
2026-05-05 15:17 42.90836 20.18919 38105 ft 419 kts 311°
2026-05-05 15:18 42.94557 20.12792 38089 ft 419 kts 310°
2026-05-05 15:18 42.98263 20.06670 38089 ft 418 kts 310°
2026-05-05 15:19 43.01968 20.00536 38091 ft 418 kts 310°
2026-05-05 15:19 43.05662 19.94404 38096 ft 418 kts 310°
2026-05-05 15:20 43.09352 19.88262 38089 ft 418 kts 310°
2026-05-05 15:20 43.13044 19.82122 38090 ft 417 kts 310°
2026-05-05 15:21 43.16724 19.75981 38080 ft 417 kts 310°
2026-05-05 15:21 43.20400 19.69833 38084 ft 417 kts 309°
2026-05-05 15:22 43.24065 19.63686 38090 ft 416 kts 310°
2026-05-05 15:22 43.27731 19.57534 38088 ft 416 kts 310°
2026-05-05 15:23 43.31399 19.51377 38077 ft 416 kts 309°
2026-05-05 15:23 43.35055 19.45207 38071 ft 416 kts 309°
2026-05-05 15:24 43.38709 19.39026 38075 ft 417 kts 309°
2026-05-05 15:24 43.42361 19.32843 38072 ft 416 kts 309°
2026-05-05 15:25 43.46010 19.26654 38075 ft 416 kts 309°
2026-05-05 15:25 43.49628 19.20496 38076 ft 416 kts 309°
2026-05-05 15:26 43.53279 19.14322 38074 ft 415 kts 312°
2026-05-05 15:26 43.57313 19.08632 38089 ft 414 kts 314°
2026-05-05 15:27 43.61355 19.02958 38072 ft 415 kts 314°
2026-05-05 15:27 43.65394 18.97265 38066 ft 415 kts 314°
2026-05-05 15:28 43.69431 18.91559 38061 ft 415 kts 313°
2026-05-05 15:28 43.73469 18.85844 38067 ft 415 kts 313°
2026-05-05 15:29 43.77503 18.80129 38073 ft 415 kts 313°
2026-05-05 15:29 43.81533 18.74404 38073 ft 415 kts 313°
2026-05-05 15:30 43.85560 18.68674 38074 ft 415 kts 313°
2026-05-05 15:30 43.89588 18.62934 38083 ft 415 kts 311°
2026-05-05 15:31 43.93595 18.57208 38080 ft 413 kts 311°
2026-05-05 15:31 43.97586 18.51491 38075 ft 412 kts 311°
2026-05-05 15:32 44.01570 18.45767 38070 ft 412 kts 311°
2026-05-05 15:32 44.05552 18.40046 38066 ft 411 kts 311°
2026-05-05 15:33 44.09527 18.34324 38063 ft 412 kts 312°
2026-05-05 15:33 44.13503 18.28584 38047 ft 412 kts 312°
2026-05-05 15:34 44.17457 18.22857 38040 ft 413 kts 311°
2026-05-05 15:34 44.21446 18.17076 38041 ft 414 kts 311°
2026-05-05 15:35 44.25460 18.11250 38033 ft 414 kts 311°
2026-05-05 15:35 44.29417 18.05483 38036 ft 414 kts 311°
2026-05-05 15:36 44.33395 17.99664 38043 ft 414 kts 311°
2026-05-05 15:36 44.37382 17.93835 38036 ft 415 kts 311°
2026-05-05 15:37 44.41370 17.87999 38035 ft 416 kts 311°
2026-05-05 15:37 44.45358 17.82140 38034 ft 416 kts 311°
2026-05-05 15:38 44.49345 17.76270 38031 ft 416 kts 311°
2026-05-05 15:38 44.53330 17.70394 38035 ft 416 kts 310°
2026-05-05 15:39 44.57312 17.64498 38025 ft 416 kts 310°
2026-05-05 15:39 44.61294 17.58602 38037 ft 416 kts 310°
2026-05-05 15:40 44.65278 17.52689 38013 ft 417 kts 310°
2026-05-05 15:40 44.69268 17.46763 38008 ft 418 kts 310°
2026-05-05 15:41 44.73259 17.40830 38000 ft 418 kts 310°
2026-05-05 15:41 44.77240 17.34870 37991 ft 418 kts 310°
2026-05-05 15:42 44.81216 17.28903 37993 ft 418 kts 310°
2026-05-05 15:42 44.85199 17.22934 37989 ft 418 kts 310°
2026-05-05 15:43 44.89182 17.16951 37985 ft 419 kts 310°
2026-05-05 15:43 44.93165 17.10948 37986 ft 419 kts 310°
2026-05-05 15:44 44.97246 17.05050 37985 ft 422 kts 317°
2026-05-05 15:44 45.01764 16.99827 38009 ft 423 kts 317°
2026-05-05 15:45 45.06323 16.94558 38007 ft 424 kts 317°
2026-05-05 15:45 45.10884 16.89276 38021 ft 424 kts 317°
2026-05-05 15:46 45.15443 16.83969 38013 ft 424 kts 317°
2026-05-05 15:46 45.19997 16.78648 38013 ft 424 kts 317°
2026-05-05 15:47 45.24555 16.73334 38018 ft 424 kts 317°
2026-05-05 15:47 45.29116 16.68009 38016 ft 424 kts 317°
2026-05-05 15:48 45.33670 16.62671 38014 ft 424 kts 317°
2026-05-05 15:48 45.38221 16.57323 38019 ft 425 kts 317°
2026-05-05 15:49 45.42774 16.51956 38003 ft 425 kts 317°
2026-05-05 15:49 45.47330 16.46575 38014 ft 425 kts 317°
2026-05-05 15:50 45.51882 16.41200 38014 ft 425 kts 317°
2026-05-05 15:50 45.56432 16.35807 38011 ft 425 kts 317°
2026-05-05 15:51 45.60975 16.30403 38000 ft 425 kts 317°
2026-05-05 15:51 45.65512 16.24995 38013 ft 425 kts 317°
2026-05-05 15:52 45.70054 16.19592 38019 ft 425 kts 317°
2026-05-05 15:52 45.74585 16.14172 38022 ft 424 kts 317°
2026-05-05 15:53 45.79101 16.08738 38024 ft 424 kts 317°
2026-05-05 15:53 45.82857 16.04221 38018 ft 424 kts 317°
2026-05-05 15:54 45.87375 15.98794 38014 ft 424 kts 317°
2026-05-05 15:54 45.91891 15.93353 37993 ft 424 kts 316°
2026-05-05 15:55 45.96408 15.87904 37998 ft 424 kts 316°
2026-05-05 15:55 46.00918 15.82445 37993 ft 423 kts 316°
2026-05-05 15:56 46.05414 15.76981 37990 ft 423 kts 316°
2026-05-05 15:56 46.09910 15.71503 37992 ft 423 kts 316°
2026-05-05 15:57 46.14407 15.66017 37977 ft 424 kts 316°
2026-05-05 15:57 46.18909 15.60520 37967 ft 425 kts 316°
2026-05-05 15:58 46.23455 15.55040 37965 ft 426 kts 317°
2026-05-05 15:58 46.28017 15.49570 37958 ft 426 kts 316°
2026-05-05 15:59 46.32583 15.44053 37959 ft 426 kts 316°
2026-05-05 15:59 46.37118 15.38525 37967 ft 427 kts 316°
2026-05-05 16:00 46.39485 15.35636 37962 ft 428 kts 316°
2026-05-05 16:01 46.42552 15.31894 37964 ft 429 kts 316°
2026-05-05 16:01 46.44477 15.29555 37954 ft 428 kts 316°
2026-05-05 16:02 46.45334 15.28514 37959 ft 428 kts 316°
2026-05-05 16:02 46.47138 15.26322 37963 ft 428 kts 316°
2026-05-05 16:03 46.51703 15.20756 37963 ft 429 kts 316°
2026-05-05 16:03 46.56262 15.15180 37960 ft 429 kts 316°
2026-05-05 16:04 46.60815 15.09581 37968 ft 429 kts 316°
2026-05-05 16:04 46.65366 15.03978 37959 ft 429 kts 316°
2026-05-05 16:05 46.69914 14.98351 37954 ft 429 kts 316°
2026-05-05 16:05 46.74471 14.92727 37949 ft 429 kts 316°
2026-05-05 16:06 46.79020 14.87089 37953 ft 429 kts 316°
2026-05-05 16:06 46.83569 14.81440 37968 ft 429 kts 316°
2026-05-05 16:07 46.88114 14.75782 37958 ft 429 kts 316°
2026-05-05 16:07 46.92652 14.70111 37947 ft 429 kts 316°
2026-05-05 16:08 46.97186 14.64434 37930 ft 429 kts 316°
2026-05-05 16:08 47.01720 14.58760 37927 ft 429 kts 315°
2026-05-05 16:09 47.06255 14.53063 37921 ft 429 kts 316°
2026-05-05 16:09 47.10780 14.47355 37936 ft 429 kts 315°
2026-05-05 16:10 47.15311 14.41637 37915 ft 430 kts 315°
2026-05-05 16:10 47.19853 14.35902 37910 ft 431 kts 315°
2026-05-05 16:11 47.24395 14.30137 37892 ft 431 kts 315°
2026-05-05 16:12 47.33481 14.18588 37877 ft 431 kts 315°
2026-05-05 16:13 47.44807 14.04072 37845 ft 431 kts 315°
2026-05-05 16:13 47.49337 13.98255 37845 ft 431 kts 315°
2026-05-05 16:14 47.58385 13.86604 37826 ft 431 kts 315°
2026-05-05 16:15 47.67399 13.74909 37805 ft 430 kts 315°
2026-05-05 16:16 47.76398 13.63195 37775 ft 430 kts 315°
2026-05-05 16:17 47.83149 13.54371 37762 ft 431 kts 315°
2026-05-05 16:18 47.89909 13.45496 37754 ft 433 kts 314°
2026-05-05 16:19 47.96692 13.36566 37757 ft 434 kts 314°
2026-05-05 16:19 48.03454 13.27642 37764 ft 435 kts 314°
2026-05-05 16:20 48.12525 13.15602 37749 ft 436 kts 314°
2026-05-05 16:22 48.23867 13.00483 37756 ft 437 kts 315°
2026-05-05 16:23 48.33425 12.89098 37766 ft 439 kts 318°
2026-05-05 16:23 48.40638 12.80576 37765 ft 440 kts 317°
2026-05-05 16:24 48.45420 12.74797 37766 ft 441 kts 317°
2026-05-05 16:25 48.52608 12.66110 37766 ft 441 kts 317°
2026-05-05 16:25 48.59798 12.57418 37769 ft 441 kts 317°
2026-05-05 16:26 48.69370 12.45783 37769 ft 442 kts 317°
2026-05-05 16:27 48.74147 12.39942 37769 ft 442 kts 317°
2026-05-05 16:27 48.78926 12.34085 37768 ft 442 kts 317°
2026-05-05 16:28 48.83669 12.28263 37781 ft 442 kts 316°
2026-05-05 16:28 48.88260 12.22122 37775 ft 436 kts 307°
2026-05-05 16:29 48.91649 12.14600 37770 ft 430 kts 297°
2026-05-05 16:29 48.94750 12.06799 37778 ft 431 kts 297°
2026-05-05 16:30 48.97864 11.99003 37792 ft 431 kts 297°
2026-05-05 16:30 49.00977 11.91186 37817 ft 432 kts 297°
2026-05-05 16:31 49.04084 11.83341 37817 ft 433 kts 297°
2026-05-05 16:31 49.07187 11.75470 37811 ft 433 kts 297°
2026-05-05 16:32 49.10297 11.67583 37811 ft 434 kts 297°
2026-05-05 16:32 49.13400 11.59672 37819 ft 435 kts 296°
2026-05-05 16:33 49.16505 11.51747 37821 ft 435 kts 296°
2026-05-05 16:33 49.19613 11.43788 37813 ft 436 kts 296°
2026-05-05 16:34 49.22714 11.35804 37806 ft 437 kts 296°
2026-05-05 16:34 49.25810 11.27807 37805 ft 437 kts 296°
2026-05-05 16:35 49.28909 11.19799 37828 ft 437 kts 296°
2026-05-05 16:35 49.31986 11.11823 37843 ft 438 kts 296°
2026-05-05 16:36 49.35080 11.03768 37846 ft 439 kts 296°
2026-05-05 16:36 49.38197 10.95643 37842 ft 439 kts 296°
2026-05-05 16:37 49.41093 10.87483 37845 ft 437 kts 292°
2026-05-05 16:37 49.43748 10.79085 37856 ft 437 kts 291°
2026-05-05 16:38 49.46376 10.70664 37869 ft 437 kts 292°
2026-05-05 16:38 49.49068 10.62265 37844 ft 438 kts 292°
2026-05-05 16:39 49.51787 10.53876 37842 ft 438 kts 292°
2026-05-05 16:39 49.54494 10.45471 37840 ft 438 kts 292°
2026-05-05 16:40 49.56747 10.38424 37839 ft 438 kts 292°
2026-05-05 16:40 49.59425 10.29990 37837 ft 439 kts 292°
2026-05-05 16:41 49.62100 10.21528 37830 ft 439 kts 292°
2026-05-05 16:41 49.64766 10.13111 37829 ft 440 kts 292°
2026-05-05 16:42 49.67450 10.04619 37832 ft 440 kts 292°
2026-05-05 16:42 49.70128 9.96114 37833 ft 441 kts 292°
2026-05-05 16:43 49.72795 9.87585 37837 ft 441 kts 292°
2026-05-05 16:43 49.75462 9.79018 37834 ft 442 kts 292°
2026-05-05 16:44 49.78123 9.70441 37833 ft 443 kts 291°
2026-05-05 16:44 49.80788 9.61846 37843 ft 443 kts 291°
2026-05-05 16:45 49.83453 9.53245 37856 ft 443 kts 291°
2026-05-05 16:45 49.86102 9.44626 37850 ft 443 kts 291°
2026-05-05 16:46 49.88742 9.35980 37844 ft 444 kts 291°
2026-05-05 16:46 49.91391 9.27315 37848 ft 445 kts 291°
2026-05-05 16:47 49.94036 9.18638 37851 ft 445 kts 291°
2026-05-05 16:47 49.96672 9.09950 37859 ft 446 kts 291°
2026-05-05 16:48 49.99311 9.01234 37837 ft 446 kts 291°
2026-05-05 16:48 50.01939 8.92504 37842 ft 446 kts 291°
2026-05-05 16:49 50.04555 8.83750 37846 ft 447 kts 291°
2026-05-05 16:49 50.07039 8.74905 37848 ft 445 kts 288°
2026-05-05 16:50 50.09163 8.65875 37852 ft 444 kts 285°
2026-05-05 16:50 50.11186 8.56785 37858 ft 444 kts 285°
2026-05-05 16:51 50.13265 8.47723 37858 ft 444 kts 286°
2026-05-05 16:51 50.15397 8.38678 37878 ft 444 kts 286°
2026-05-05 16:52 50.17524 8.29630 37874 ft 444 kts 286°
2026-05-05 16:52 50.19629 8.20575 37881 ft 444 kts 286°
2026-05-05 16:53 50.21724 8.11506 37866 ft 444 kts 286°
2026-05-05 16:53 50.23796 8.02485 37859 ft 444 kts 286°
2026-05-05 16:54 50.25870 7.93390 37849 ft 444 kts 286°
2026-05-05 16:54 50.27946 7.84288 37845 ft 444 kts 286°
2026-05-05 16:55 50.30010 7.75182 37853 ft 445 kts 286°
2026-05-05 16:55 50.32067 7.66062 37848 ft 445 kts 286°
2026-05-05 16:56 50.34127 7.56928 37842 ft 445 kts 286°
2026-05-05 16:56 50.36171 7.47777 37843 ft 445 kts 285°
2026-05-05 16:57 50.38210 7.38623 37854 ft 445 kts 286°
2026-05-05 16:57 50.40256 7.29445 37854 ft 446 kts 286°
2026-05-05 16:58 50.42296 7.20241 37854 ft 447 kts 285°
2026-05-05 16:58 50.44325 7.11022 37854 ft 447 kts 285°
2026-05-05 16:59 50.46344 7.01795 37857 ft 447 kts 285°
2026-05-05 16:59 50.48351 6.92576 37869 ft 446 kts 285°
2026-05-05 17:00 50.50354 6.83339 37862 ft 447 kts 285°
2026-05-05 17:00 50.52453 6.74134 37858 ft 448 kts 288°
2026-05-05 17:01 50.54764 6.65028 37851 ft 449 kts 289°
2026-05-05 17:01 50.57078 6.55915 37850 ft 449 kts 288°
2026-05-05 17:02 50.59332 6.46763 37858 ft 449 kts 288°
2026-05-05 17:02 50.61559 6.37578 37865 ft 449 kts 288°
2026-05-05 17:03 50.63782 6.28368 37860 ft 450 kts 288°
2026-05-05 17:03 50.66010 6.19162 37860 ft 449 kts 288°
2026-05-05 17:04 50.68223 6.09957 37872 ft 449 kts 287°
2026-05-05 17:04 50.70425 6.00742 37880 ft 449 kts 287°
2026-05-05 17:05 50.72626 5.91525 37878 ft 449 kts 287°
2026-05-05 17:05 50.74823 5.82287 37884 ft 449 kts 287°
2026-05-05 17:06 50.77014 5.73050 37889 ft 449 kts 287°
2026-05-05 17:06 50.79174 5.63876 37887 ft 448 kts 287°
2026-05-05 17:07 50.81342 5.54633 37896 ft 448 kts 287°
2026-05-05 17:07 50.83501 5.45396 37891 ft 448 kts 287°
2026-05-05 17:08 50.85646 5.36148 37897 ft 448 kts 287°
2026-05-05 17:08 50.87791 5.26893 37901 ft 448 kts 287°
2026-05-05 17:09 50.89925 5.17636 37917 ft 447 kts 287°
2026-05-05 17:09 50.92049 5.08375 37908 ft 447 kts 287°
2026-05-05 17:10 50.94164 4.99106 37892 ft 447 kts 287°
2026-05-05 17:10 50.96273 4.89839 37899 ft 447 kts 287°
2026-05-05 17:11 50.98379 4.80565 37898 ft 447 kts 287°
2026-05-05 17:11 51.00472 4.71274 37912 ft 447 kts 287°
2026-05-05 17:12 51.02556 4.61973 37913 ft 447 kts 287°
2026-05-05 17:12 51.04638 4.52658 37908 ft 447 kts 287°
2026-05-05 17:13 51.06712 4.43347 37907 ft 447 kts 287°
2026-05-05 17:13 51.08782 4.34023 37907 ft 447 kts 287°
2026-05-05 17:14 51.10848 4.24684 37911 ft 447 kts 287°
2026-05-05 17:14 51.12899 4.15333 37907 ft 447 kts 286°
2026-05-05 17:15 51.14937 4.05978 37908 ft 448 kts 286°
2026-05-05 17:15 51.16967 3.96608 37896 ft 447 kts 286°
2026-05-05 17:16 51.18995 3.87255 37893 ft 446 kts 286°
2026-05-05 17:16 51.21012 3.77895 37899 ft 446 kts 286°
2026-05-05 17:17 51.22999 3.68590 37894 ft 446 kts 286°
2026-05-05 17:17 51.24509 3.59039 37896 ft 444 kts 279°
2026-05-05 17:18 51.25791 3.49403 37895 ft 444 kts 279°
2026-05-05 17:18 51.27071 3.39757 37901 ft 444 kts 279°
2026-05-05 17:19 51.28322 3.30101 37923 ft 444 kts 279°
2026-05-05 17:19 51.29550 3.20444 37937 ft 444 kts 278°
2026-05-05 17:20 51.30775 3.10794 37935 ft 443 kts 279°
2026-05-05 17:20 51.32002 3.01157 37939 ft 442 kts 278°
2026-05-05 17:21 51.33210 2.91528 37927 ft 441 kts 278°
2026-05-05 17:22 51.34998 2.77096 37938 ft 441 kts 278°
2026-05-05 17:22 51.36190 2.67466 37935 ft 441 kts 278°
2026-05-05 17:23 51.37374 2.57833 37940 ft 441 kts 279°
2026-05-05 17:23 51.38550 2.48200 37936 ft 441 kts 278°
2026-05-05 17:24 51.39720 2.38556 37944 ft 441 kts 278°
2026-05-05 17:24 51.40880 2.28893 37942 ft 442 kts 278°
2026-05-05 17:25 51.42043 2.19234 37948 ft 442 kts 279°
2026-05-05 17:25 51.43026 2.11196 37944 ft 442 kts 279°
2026-05-05 17:26 51.44225 2.01450 37950 ft 443 kts 279°
2026-05-05 17:26 51.45237 1.96790 37936 ft 446 kts 296°
2026-05-05 17:26 51.46839 1.92606 37939 ft 447 kts 300°
2026-05-05 17:27 51.50238 1.84220 37939 ft 448 kts 301°
2026-05-05 17:27 51.53643 1.75818 37944 ft 449 kts 300°
2026-05-05 17:28 51.57039 1.67400 37955 ft 449 kts 301°
2026-05-05 17:28 51.60459 1.58882 37958 ft 450 kts 301°
2026-05-05 17:29 51.63832 1.50421 37962 ft 450 kts 301°
2026-05-05 17:29 51.67205 1.41930 37968 ft 450 kts 301°
2026-05-05 17:30 51.70587 1.33444 37969 ft 450 kts 301°
2026-05-05 17:30 51.73957 1.24937 37967 ft 450 kts 301°
2026-05-05 17:31 51.77315 1.16409 37969 ft 450 kts 301°
2026-05-05 17:31 51.80671 1.07869 37973 ft 450 kts 300°
2026-05-05 17:32 51.84047 0.99257 37974 ft 450 kts 300°
2026-05-05 17:32 51.87398 0.90687 37979 ft 450 kts 300°
2026-05-05 17:33 51.90735 0.82122 37976 ft 450 kts 300°
2026-05-05 17:33 51.94064 0.73544 37939 ft 450 kts 300°
2026-05-05 17:33 51.95722 0.69250 37649 ft 449 kts 300°
2026-05-05 17:34 51.97373 0.64957 37379 ft 448 kts 300°
2026-05-05 17:34 51.99019 0.60670 37115 ft 447 kts 300°
2026-05-05 17:34 52.00663 0.56392 36850 ft 447 kts 300°
2026-05-05 17:34 52.02310 0.52118 36588 ft 446 kts 300°
2026-05-05 17:35 52.03954 0.47848 36336 ft 446 kts 300°
2026-05-05 17:35 52.05593 0.43581 36086 ft 445 kts 299°
2026-05-05 17:35 52.07208 0.39365 35839 ft 444 kts 299°
2026-05-05 17:35 52.08854 0.35053 35587 ft 444 kts 299°
2026-05-05 17:36 52.10478 0.30784 35341 ft 444 kts 299°
2026-05-05 17:36 52.12101 0.26513 35106 ft 444 kts 299°
2026-05-05 17:36 52.13724 0.22242 34859 ft 443 kts 299°
2026-05-05 17:36 52.15344 0.17970 34614 ft 443 kts 299°
2026-05-05 17:37 52.16958 0.13703 34381 ft 443 kts 298°
2026-05-05 17:37 52.18574 0.09424 34143 ft 443 kts 298°
2026-05-05 17:37 52.20165 0.05199 33893 ft 443 kts 298°
2026-05-05 17:37 52.21793 0.00874 33594 ft 442 kts 298°
2026-05-05 17:38 52.23396 -0.03391 33325 ft 441 kts 298°
2026-05-05 17:38 52.24971 -0.07582 33063 ft 440 kts 298°
2026-05-05 17:38 52.26572 -0.11847 32782 ft 438 kts 298°
2026-05-05 17:38 52.28160 -0.16086 32512 ft 436 kts 298°
2026-05-05 17:39 52.29739 -0.20307 32257 ft 433 kts 298°
2026-05-05 17:39 52.31296 -0.24482 31991 ft 430 kts 298°
2026-05-05 17:39 52.32847 -0.28653 31732 ft 428 kts 298°
2026-05-05 17:39 52.34388 -0.32799 31474 ft 426 kts 297°
2026-05-05 17:40 52.35919 -0.36923 31213 ft 423 kts 297°
2026-05-05 17:40 52.37439 -0.41022 30738 ft 420 kts 297°
2026-05-05 17:40 52.38945 -0.45093 30230 ft 417 kts 297°
2026-05-05 17:40 52.40440 -0.49147 29703 ft 414 kts 297°
2026-05-05 17:41 52.41917 -0.53158 29169 ft 409 kts 297°
2026-05-05 17:41 52.43380 -0.57134 28692 ft 405 kts 297°
2026-05-05 17:41 52.44826 -0.61069 28214 ft 401 kts 297°
2026-05-05 17:41 52.46254 -0.64964 27726 ft 397 kts 297°
2026-05-05 17:42 52.47667 -0.68827 27262 ft 392 kts 297°
2026-05-05 17:42 52.49061 -0.72640 26794 ft 388 kts 297°
2026-05-05 17:42 52.50441 -0.76420 26352 ft 384 kts 298°
2026-05-05 17:42 52.51806 -0.80161 25914 ft 380 kts 298°
2026-05-05 17:43 52.53156 -0.83867 25497 ft 376 kts 298°
2026-05-05 17:43 52.54507 -0.87579 25073 ft 372 kts 298°
2026-05-05 17:43 52.55826 -0.91210 24662 ft 368 kts 298°
2026-05-05 17:43 52.57205 -0.94749 24019 ft 372 kts 307°
2026-05-05 17:44 52.59043 -0.97820 23308 ft 379 kts 314°
2026-05-05 17:44 52.60933 -1.00797 22863 ft 374 kts 314°
2026-05-05 17:44 52.62797 -1.03742 22440 ft 369 kts 314°
2026-05-05 17:44 52.64630 -1.06650 22010 ft 364 kts 314°
2026-05-05 17:45 52.66441 -1.09530 21576 ft 360 kts 314°
2026-05-05 17:45 52.68246 -1.12406 21171 ft 360 kts 314°
2026-05-05 17:45 52.70040 -1.15273 20760 ft 359 kts 314°
2026-05-05 17:45 52.71826 -1.18132 20360 ft 357 kts 314°
2026-05-05 17:46 52.73598 -1.20973 19957 ft 354 kts 314°
2026-05-05 17:46 52.75360 -1.23801 19564 ft 352 kts 314°
2026-05-05 17:46 52.77110 -1.26611 19183 ft 350 kts 313°
2026-05-05 17:46 52.78847 -1.29396 18797 ft 347 kts 313°
2026-05-05 17:47 52.80573 -1.32170 18415 ft 344 kts 313°
2026-05-05 17:47 52.82283 -1.34926 18001 ft 342 kts 313°
2026-05-05 17:47 52.83979 -1.37663 17569 ft 340 kts 313°
2026-05-05 17:47 52.85662 -1.40381 17144 ft 337 kts 313°
2026-05-05 17:48 52.87334 -1.43087 16729 ft 335 kts 314°
2026-05-05 17:48 52.88992 -1.45774 16307 ft 333 kts 313°
2026-05-05 17:48 52.90642 -1.48452 15897 ft 330 kts 314°
2026-05-05 17:48 52.92279 -1.51108 15493 ft 329 kts 314°
2026-05-05 17:49 52.93906 -1.53751 15094 ft 327 kts 314°
2026-05-05 17:49 52.95524 -1.56381 14707 ft 325 kts 314°
2026-05-05 17:49 52.97135 -1.58998 14315 ft 323 kts 314°
2026-05-05 17:49 52.98734 -1.61599 13928 ft 321 kts 314°
2026-05-05 17:50 53.00326 -1.64192 13518 ft 319 kts 314°
2026-05-05 17:50 53.01902 -1.66764 13078 ft 317 kts 314°
2026-05-05 17:50 53.03465 -1.69315 12670 ft 315 kts 314°
2026-05-05 17:50 53.05023 -1.71856 12254 ft 312 kts 314°
2026-05-05 17:51 53.06567 -1.74380 11845 ft 310 kts 314°
2026-05-05 17:51 53.08101 -1.76887 11445 ft 308 kts 315°
2026-05-05 17:51 53.09625 -1.79385 11037 ft 306 kts 315°
2026-05-05 17:51 53.11135 -1.81870 10642 ft 305 kts 315°
2026-05-05 17:52 53.12629 -1.84331 10257 ft 303 kts 315°
2026-05-05 17:52 53.14129 -1.86809 9862 ft 301 kts 315°
2026-05-05 17:52 53.15607 -1.89252 9432 ft 299 kts 315°
2026-05-05 17:52 53.16995 -1.91799 9019 ft 296 kts 304°
2026-05-05 17:53 53.17811 -1.94920 8591 ft 295 kts 283°
2026-05-05 17:53 53.18182 -1.98257 8315 ft 288 kts 281°
2026-05-05 17:53 53.18519 -2.01484 8182 ft 277 kts 281°
2026-05-05 17:53 53.18838 -2.04586 8043 ft 269 kts 281°
2026-05-05 17:54 53.19160 -2.07705 7930 ft 275 kts 281°
2026-05-05 17:54 53.19486 -2.10872 7614 ft 278 kts 281°
2026-05-05 17:54 53.19813 -2.14055 7149 ft 280 kts 282°
2026-05-05 17:54 53.20145 -2.17268 6692 ft 281 kts 281°
2026-05-05 17:55 53.20466 -2.20399 6526 ft 262 kts 280°
2026-05-05 17:55 53.20755 -2.23238 6425 ft 235 kts 281°
2026-05-05 17:55 53.21019 -2.25843 6295 ft 222 kts 281°
2026-05-05 17:55 53.21272 -2.28335 5964 ft 212 kts 282°
2026-05-05 17:56 53.21511 -2.30701 5639 ft 203 kts 282°
2026-05-05 17:56 53.21711 -2.33008 5300 ft 201 kts 272°
2026-05-05 17:56 53.21493 -2.35311 4986 ft 201 kts 257°
2026-05-05 17:56 53.21133 -2.37562 4639 ft 201 kts 256°
2026-05-05 17:57 53.20769 -2.39801 4299 ft 199 kts 257°
2026-05-05 17:57 53.20510 -2.42037 3950 ft 195 kts 272°
2026-05-05 17:57 53.20597 -2.44272 3634 ft 192 kts 279°
2026-05-05 17:57 53.20789 -2.46453 3290 ft 188 kts 291°
2026-05-05 17:58 53.21534 -2.48145 3108 ft 179 kts 324°
2026-05-05 17:58 53.22640 -2.49019 3046 ft 177 kts 349°
2026-05-05 17:58 53.23856 -2.48978 2958 ft 176 kts 18°
2026-05-05 17:58 53.24918 -2.48030 2805 ft 173 kts 43°
2026-05-05 17:59 53.25684 -2.46538 2603 ft 166 kts 51°
2026-05-05 17:59 53.26397 -2.45070 2400 ft 160 kts 51°
2026-05-05 17:59 53.27084 -2.43657 2172 ft 153 kts 50°
2026-05-05 17:59 53.27736 -2.42318 1974 ft 146 kts 50°
2026-05-05 18:00 53.28367 -2.41019 1776 ft 142 kts 50°
2026-05-05 18:00 53.28986 -2.39747 1577 ft 141 kts 50°
2026-05-05 18:00 53.29605 -2.38472 1385 ft 140 kts 50°
2026-05-05 18:00 53.30222 -2.37203 1186 ft 142 kts 50°
2026-05-05 18:01 53.30849 -2.35911 967 ft 144 kts 50°
2026-05-05 18:01 53.31491 -2.34589 784 ft 148 kts 51°
2026-05-05 18:01 53.32143 -2.33247 600 ft 149 kts 52°
2026-05-05 18:01 53.32790 -2.31909 392 ft 147 kts 52°
2026-05-05 18:02 53.33429 -2.30591 236 ft 142 kts 52°
2026-05-05 18:02 53.33824 -2.29765 226 ft 118 kts 51°
2026-05-05 18:02 53.34218 -2.28956 228 ft 63 kts 51°
2026-05-05 18:02 53.34425 -2.28604 226 ft 35 kts 31°
2026-05-05 18:03 53.34599 -2.28476 229 ft 21 kts 21°
2026-05-05 18:03 53.34722 -2.28370 230 ft 19 kts 41°